TimeEST,TemperatureF,Dew PointF,Humidity,Sea Level PressureIn,VisibilityMPH,Wind Direction,Wind SpeedMPH,Gust SpeedMPH,PrecipitationIn,Events,Conditions,WindDirDegrees,DateUTC
6:00 AM,78.8,75.2,89,29.80,5.6,WNW,15.0,-,N/A,Rain-Thunderstorm,Thunderstorms and Rain,300,2013-05-03 11:00:00
7:00 AM,82,69,57,29.85,6,SW,5.8,,,Rain,Light Rain,220,2013-05-03 12:00:00
7:00 AM,82.4,69.8,66,29.83,6.2,SW,5.8,-,N/A,Rain,Light Rain,220,2013-05-03 12:00:00
7:50 AM,75.2,75.2,100,29.86,6.2,SSW,12.7,-,N/A,Rain,Light Rain,210,2013-05-03 12:50:00
8:55 AM,75.2,75.2,100,29.86,6.2,SSW,5.8,-,N/A,Rain,Light Rain,200,2013-05-03 13:55:00
9:57 AM,80.6,75.2,84,29.86,-9999.0,Calm,Calm,-,N/A,,Clear,0,2013-05-03 14:57:00
10:55 AM,84.2,73.4,70,29.83,-9999.0,West,9.2,-,N/A,,Clear,260,2013-05-03 15:55:00
11:55 AM,82.4,75.2,79,29.86,-9999.0,WSW,10.4,-,N/A,,Clear,240,2013-05-03 16:55:00
12:52 PM,84.2,77.0,79,29.83,6.2,WSW,11.5,-,N/A,,Partly Cloudy,240,2013-05-03 17:52:00
1:00 PM,85,76,68,29.85,6,WSW,11.5,,,,Partly Cloudy,240,2013-05-03 18:00:00
2:00 PM,86.0,77.0,74,29.83,6.2,WSW,6.9,-,N/A,,Mostly Cloudy,250,2013-05-03 19:00:00
3:00 PM,84.2,78.8,84,29.83,6.2,WSW,8.1,-,N/A,,Mostly Cloudy,240,2013-05-03 20:00:00
4:00 PM,86.0,78.8,79,29.80,6.2,West,10.4,-,N/A,,Mostly Cloudy,270,2013-05-03 21:00:00
5:00 PM,84.2,77.0,79,29.80,6.2,West,113.9,-,N/A,,Mostly Cloudy,270,2013-05-03 22:00:00
6:00 PM,84.2,78.8,84,29.80,6.2,West,10.4,-,N/A,,Scattered Clouds,280,2013-05-03 23:00:00
7:00 PM,82,77,82,29.83,6,WNW,10.4,,,Tornado,Funnel Cloud,300,2013-05-04 00:00:00
7:00 PM,82.4,77.0,84,29.83,6.2,WNW,10.4,-,N/A,Tornado,Funnel Cloud,300,2013-05-04 00:00:00
8:00 PM,82.4,77.0,84,29.83,6.2,West,10.4,-,N/A,,Partly Cloudy,280,2013-05-04 01:00:00
9:00 PM,82.4,77.0,84,29.86,6.2,WNW,9.2,-,N/A,,Partly Cloudy,300,2013-05-04 02:00:00
10:00 PM,80.6,77.0,89,29.86,6.2,NW,11.5,-,N/A,,Partly Cloudy,320,2013-05-04 03:00:00